Overview Statistics Trail Chart Weather Telemetry Raw packets
 

This is the latest recevied weather packets stored in our database for station/object KH6HHG. If no packets are shown the sender has not sent any weather packets the latest 10 day(s).

<< 39 40 41 42 43 44 45 >>
Time Temp. Humidity Pressure Rain* Wind** Luminosity Snow
1777422847 25.56° C 70% 1011.5 hPa 0 mm - - -
1777422547 25.56° C 72% 1011.5 hPa 0 mm - - -
1777422247 25.56° C 69% 1011.6 hPa 0 mm - - -
1777421947 25.56° C 71% 1011.6 hPa 0 mm - - -
1777421647 25.56° C 73% 1011.6 hPa 0 mm - - -
1777421347 25° C 72% 1011.7 hPa 0 mm - - -
1777421047 25° C 72% 1011.7 hPa 0 mm - - -
1777420747 25.56° C 73% 1011.9 hPa 0 mm - - -
1777420447 25° C 74% 1011.9 hPa 0 mm - - -
1777420147 25° C 73% 1012 hPa 0 mm - - -
1777419847 25° C 73% 1012 hPa 0 mm - - -
1777419547 25.56° C 72% 1012.1 hPa 0 mm - - -
1777419247 25.56° C 71% 1012.1 hPa 0 mm - - -
1777418947 26.11° C 69% 1012.1 hPa 0 mm - - -
1777418647 26.11° C 71% 1012.1 hPa 0 mm - - -
1777418347 26.11° C 71% 1012.2 hPa 0 mm - - -
1777418051 26.11° C 71% 1012.2 hPa 0 mm - - -
1777417747 26.11° C 69% 1012.3 hPa 0 mm - - -
1777417447 26.11° C 69% 1012.3 hPa 0 mm - - -
1777417147 26.67° C 69% 1012.4 hPa 0 mm - - -
1777416847 26.67° C 69% 1012.4 hPa 0 mm - - -
1777416547 26.67° C 70% 1012.5 hPa 0 mm - - -
1777416247 26.67° C 69% 1012.6 hPa 0 mm - - -
1777415947 26.67° C 70% 1012.6 hPa 0 mm - - -
1777415647 26.11° C 69% 1012.5 hPa 0 mm - - -

* Rain latest hour (hover to see other rain measurements)
** Current wind speed in m/s (hover to see current wind gust speed)